When you browse on this site, cookies collect data to enhance your experience and personalize the content and advertising you see.
Visit our Privacy Policy to learn more. By continuing to use the site, you agree to this use of cookies and data.
  • In Slovakia
  • List of Countries
  • For 7 days
  • Water Temperature
  • Satellite Maps
  • Weather Map
  • Weather Widgets
  • user-avatar
    Login

    Hourly Weather Ondjiwa

    Today, 25 March, Monday

    Time Temperature Precipitation Wind Pressure Humidity
    00:00 +27°C° 0 mm 2 mps 667 mmHg 37%
    01:00 +28°C° 0 mm 2 mps 667 mmHg 36%
    02:00 +28°C° 0 mm 2 mps 667 mmHg 38%
    03:00 +27°C° 0 mm 2 mps 667 mmHg 40%
    04:00 +27°C° 0 mm 2 mps 667 mmHg 41%
    05:00 +27°C° 0 mm 1 mps 667 mmHg 43%
    06:00 +27°C° 0 mm 1 mps 667 mmHg 44%
    07:00 +27°C° 0 mm 1 mps 668 mmHg 44%
    08:00 +29°C° 0 mm 2 mps 668 mmHg 38%
    09:00 +31°C° 0 mm 2 mps 669 mmHg 33%
    10:00 +34°C° 0 mm 3 mps 669 mmHg 27%
    11:00 +36°C° 0 mm 3 mps 669 mmHg 24%
    12:00 +37°C° 0 mm 3 mps 668 mmHg 21%
    13:00 +38°C° 0 mm 3 mps 668 mmHg 18%
    14:00 +38°C° 0 mm 3 mps 668 mmHg 18%
    15:00 +37°C° 0 mm 3 mps 667 mmHg 19%
    16:00 +37°C° 0 mm 2 mps 666 mmHg 19%
    17:00 +35°C° 0 mm 2 mps 666 mmHg 21%
    18:00 +32°C° 0 mm 2 mps 666 mmHg 24%
    19:00 +31°C° 0 mm 2 mps 666 mmHg 26%
    20:00 +30°C° 0 mm 2 mps 666 mmHg 27%
    21:00 +30°C° 0 mm 1 mps 667 mmHg 27%
    22:00 +29°C° 0 mm 1 mps 667 mmHg 28%
    23:00 +29°C° 0 mm 1 mps 667 mmHg 29%

    Tomorrow, 26 March, Tuesday

    Time Temperature Precipitation Wind Pressure Humidity
    00:00 +28°C° 0 mm 1 mps 667 mmHg 30%
    01:00 +27°C° 0 mm 2 mps 667 mmHg 31%
    02:00 +27°C° 0 mm 2 mps 667 mmHg 33%
    03:00 +26°C° 0 mm 2 mps 666 mmHg 35%
    04:00 +26°C° 0 mm 2 mps 666 mmHg 36%
    05:00 +26°C° 0 mm 2 mps 667 mmHg 39%
    06:00 +26°C° 0 mm 2 mps 667 mmHg 42%
    07:00 +26°C° 0 mm 2 mps 667 mmHg 45%
    08:00 +29°C° 0 mm 2 mps 668 mmHg 39%
    09:00 +31°C° 0 mm 2 mps 669 mmHg 32%
    10:00 +35°C° 0 mm 3 mps 669 mmHg 26%
    11:00 +36°C° 0 mm 3 mps 669 mmHg 24%
    12:00 +36°C° 0 mm 2 mps 668 mmHg 22%
    13:00 +37°C° 0 mm 2 mps 668 mmHg 20%
    14:00 +36°C° 0 mm 2 mps 667 mmHg 22%
    15:00 +34°C° 0 mm 1 mps 667 mmHg 24%
    16:00 +34°C° 0 mm 1 mps 666 mmHg 26%
    17:00 +32°C° 0.1 mm 2 mps 666 mmHg 28%
    18:00 +31°C° 0.1 mm 3 mps 667 mmHg 31%
    19:00 +30°C° 0.1 mm 4 mps 667 mmHg 34%
    20:00 +29°C° 0 mm 3 mps 667 mmHg 37%
    21:00 +28°C° 0 mm 2 mps 668 mmHg 40%
    22:00 +28°C° 0 mm 1 mps 668 mmHg 43%
    23:00 +27°C° 0.1 mm 1 mps 668 mmHg 47%

    Day after tomorrow, 27 March, Wednesday

    Time Temperature Precipitation Wind Pressure Humidity
    00:00 +25°C° 0.1 mm 1 mps 668 mmHg 52%
    01:00 +24°C° 0.1 mm 2 mps 668 mmHg 56%
    02:00 +24°C° 0 mm 2 mps 667 mmHg 58%
    03:00 +24°C° 0 mm 2 mps 667 mmHg 59%
    04:00 +23°C° 0 mm 2 mps 667 mmHg 61%
    05:00 +23°C° 0 mm 2 mps 668 mmHg 61%
    06:00 +24°C° 0 mm 2 mps 668 mmHg 62%
    07:00 +24°C° 0 mm 1 mps 669 mmHg 62%
    08:00 +27°C° 0 mm 2 mps 669 mmHg 53%
    09:00 +30°C° 0 mm 2 mps 670 mmHg 43%
    10:00 +34°C° 0 mm 2 mps 671 mmHg 34%
    11:00 +34°C° 0 mm 2 mps 670 mmHg 31%
    12:00 +35°C° 0 mm 2 mps 670 mmHg 29%
    13:00 +35°C° 0 mm 1 mps 669 mmHg 26%
    14:00 +35°C° 0 mm 1 mps 669 mmHg 26%
    15:00 +35°C° 0 mm 1 mps 668 mmHg 26%
    16:00 +35°C° 0 mm 1 mps 668 mmHg 26%
    17:00 +33°C° 0.1 mm 1 mps 668 mmHg 30%
    18:00 +31°C° 0.1 mm 1 mps 668 mmHg 34%
    19:00 +29°C° 0.1 mm 1 mps 668 mmHg 38%
    20:00 +28°C° 0 mm 1 mps 668 mmHg 40%
    21:00 +27°C° 0 mm 1 mps 669 mmHg 42%
    22:00 +27°C° 0 mm 1 mps 669 mmHg 45%
    23:00 +26°C° 0.3 mm 1 mps 669 mmHg 50%

    28 March, Thursday

    Time Temperature Precipitation Wind Pressure Humidity
    00:00 +25°C° 0.3 mm 1 mps 669 mmHg 56%
    01:00 +23°C° 0.3 mm 1 mps 668 mmHg 62%
    02:00 +23°C° 0.1 mm 1 mps 668 mmHg 66%
    03:00 +22°C° 0.1 mm 1 mps 668 mmHg 69%
    04:00 +22°C° 0.1 mm 1 mps 668 mmHg 73%
    05:00 +21°C° 0 mm 2 mps 669 mmHg 72%
    06:00 +21°C° 0 mm 2 mps 669 mmHg 72%
    07:00 +23°C° 0 mm 2 mps 670 mmHg 72%
    08:00 +26°C° 0 mm 2 mps 671 mmHg 62%
    09:00 +28°C° 0 mm 2 mps 671 mmHg 52%
    10:00 +31°C° 0 mm 2 mps 672 mmHg 42%
    11:00 +33°C° 0 mm 3 mps 671 mmHg 37%
    12:00 +35°C° 0 mm 3 mps 670 mmHg 32%
    13:00 +36°C° 0 mm 3 mps 670 mmHg 27%
    14:00 +36°C° 0 mm 3 mps 669 mmHg 29%
    15:00 +35°C° 0 mm 2 mps 669 mmHg 30%
    16:00 +34°C° 0 mm 2 mps 668 mmHg 32%
    17:00 +32°C° 0 mm 2 mps 668 mmHg 35%
    18:00 +30°C° 0 mm 1 mps 668 mmHg 38%
    19:00 +29°C° 0 mm 1 mps 668 mmHg 41%
    20:00 +28°C° 0 mm 1 mps 668 mmHg 43%
    21:00 +27°C° 0 mm 1 mps 669 mmHg 45%
    22:00 +27°C° 0 mm 2 mps 669 mmHg 48%
    23:00 +26°C° 0 mm 2 mps 669 mmHg 49%

    29 March, Friday

    Time Temperature Precipitation Wind Pressure Humidity
    00:00 +25°C° 0 mm 2 mps 668 mmHg 51%
    01:00 +25°C° 0 mm 2 mps 668 mmHg 53%
    02:00 +24°C° 0 mm 1 mps 667 mmHg 55%
    03:00 +24°C° 0 mm 1 mps 667 mmHg 56%
    04:00 +24°C° 0 mm 1 mps 667 mmHg 58%
    05:00 +24°C° 0 mm 1 mps 667 mmHg 58%
    06:00 +24°C° 0 mm 1 mps 668 mmHg 58%
    07:00 +24°C° 0 mm 1 mps 669 mmHg 58%
    08:00 +27°C° 0 mm 2 mps 669 mmHg 50%
    09:00 +30°C° 0 mm 2 mps 670 mmHg 41%
    10:00 +34°C° 0 mm 2 mps 670 mmHg 33%
    11:00 +35°C° 0 mm 3 mps 670 mmHg 29%
    12:00 +36°C° 0 mm 3 mps 669 mmHg 25%
    13:00 +38°C° 0 mm 3 mps 668 mmHg 21%
    14:00 +37°C° 0 mm 3 mps 668 mmHg 22%
    15:00 +36°C° 0 mm 2 mps 667 mmHg 23%
    16:00 +34°C° 0 mm 1 mps 667 mmHg 25%
    17:00 +33°C° 0 mm 1 mps 667 mmHg 26%
    18:00 +30°C° 0 mm 0 mps 667 mmHg 28%
    19:00 +29°C° 0 mm 0 mps 667 mmHg 30%
    20:00 +28°C° 0 mm 0 mps 667 mmHg 32%
    21:00 +29°C° 0 mm 1 mps 667 mmHg 34%
    22:00 +28°C° 0 mm 1 mps 667 mmHg 36%
    23:00 +27°C° 0 mm 1 mps 667 mmHg 37%

    30 March, Saturday

    Time Temperature Precipitation Wind Pressure Humidity
    00:00 +26°C° 0 mm 1 mps 667 mmHg 39%
    01:00 +26°C° 0 mm 1 mps 666 mmHg 40%
    02:00 +25°C° 0 mm 1 mps 666 mmHg 43%
    03:00 +24°C° 0 mm 2 mps 666 mmHg 45%
    04:00 +24°C° 0 mm 2 mps 666 mmHg 48%
    05:00 +24°C° 0 mm 2 mps 666 mmHg 51%
    06:00 +24°C° 0 mm 1 mps 667 mmHg 54%
    07:00 +24°C° 0 mm 1 mps 667 mmHg 56%
    08:00 +27°C° 0 mm 1 mps 668 mmHg 49%
    09:00 +30°C° 0 mm 2 mps 669 mmHg 42%
    10:00 +34°C° 0 mm 2 mps 669 mmHg 35%
    11:00 +35°C° 0 mm 2 mps 669 mmHg 30%
    12:00 +37°C° 0 mm 2 mps 668 mmHg 26%
    13:00 +39°C° 0 mm 2 mps 668 mmHg 22%
    14:00 +37°C° 0 mm 1 mps 667 mmHg 22%
    15:00 +36°C° 0 mm 1 mps 667 mmHg 22%
    16:00 +36°C° 0 mm 1 mps 667 mmHg 23%
    17:00 +34°C° 0 mm 1 mps 666 mmHg 26%
    18:00 +32°C° 0 mm 1 mps 666 mmHg 30%
    19:00 +29°C° 0 mm 1 mps 666 mmHg 33%
    20:00 +29°C° 0 mm 1 mps 666 mmHg 35%
    21:00 +28°C° 0 mm 1 mps 667 mmHg 37%
    22:00 +28°C° 0 mm 2 mps 667 mmHg 38%
    23:00 +27°C° 0 mm 2 mps 667 mmHg 41%
    Show more